Location: Unspecified
(0.0000°N, 0.0000°E)
Time: 11:21:39
(UTC+00:00)

A-11 Canister half - Pass Details

Date: 27 November 2019
Orbit: 1526 x 1683 km, 47.3° (Epoch: 13 December)

Event Time Altitude Azimuth Distance (km) Brightness Sun altitude
Rises 16:07:50 0° 351° (N) 4,756 11.4 23.2°
Reaches altitude 10° 16:12:55 10° 13° (NNE) 3,742 10.8 22.0°
Maximum altitude 16:17:46 15° 45° (NE) 3,335 10.4 20.9°
Drops below altitude 10° 16:22:34 10° 77° (ENE) 3,702 10.5 19.8°
Sets 16:27:27 0° 99° (E) 4,674 11.0 18.6°
